• Em Portugal
  • Lista de países
  • Para 7 dias
  • Temperatura da água
  • Mapas de satélite
  • Mapa do tempo
  • Widgets de tempo
  • user-avatar
    Iniciar Sessão

    Previsão horária em Montana

    Hoje, 25 Setembro, Terça-feira

    Tempo Temperatura Precipitação Vento Pressão Humidade
    00:00 +10°C° 0 mm 5 m/s 741 mmHg 64%
    01:00 +9°C° 0 mm 5 m/s 741 mmHg 66%
    02:00 +10°C° 0 mm 4 m/s 741 mmHg 68%
    03:00 +8°C° 0 mm 4 m/s 742 mmHg 70%
    04:00 +7°C° 0 mm 4 m/s 742 mmHg 73%
    05:00 +7°C° 0 mm 4 m/s 742 mmHg 75%
    06:00 +7°C° 0 mm 4 m/s 742 mmHg 71%
    07:00 +8°C° 0 mm 4 m/s 743 mmHg 66%
    08:00 +9°C° 0 mm 5 m/s 743 mmHg 61%
    09:00 +10°C° 0 mm 5 m/s 743 mmHg 52%
    10:00 +13°C° 0 mm 6 m/s 743 mmHg 43%
    11:00 +15°C° 0 mm 6 m/s 743 mmHg 34%
    12:00 +15°C° 0 mm 6 m/s 743 mmHg 32%
    13:00 +16°C° 0 mm 6 m/s 743 mmHg 30%
    14:00 +16°C° 0 mm 6 m/s 743 mmHg 28%
    15:00 +16°C° 0 mm 6 m/s 743 mmHg 28%
    16:00 +15°C° 0 mm 6 m/s 743 mmHg 29%
    17:00 +15°C° 0 mm 5 m/s 743 mmHg 30%
    18:00 +13°C° 0 mm 4 m/s 743 mmHg 35%
    19:00 +11°C° 0 mm 4 m/s 744 mmHg 40%
    20:00 +10°C° 0 mm 3 m/s 745 mmHg 44%
    21:00 +9°C° 0 mm 2 m/s 745 mmHg 47%
    22:00 +8°C° 0 mm 2 m/s 746 mmHg 50%
    23:00 +7°C° 0 mm 2 m/s 746 mmHg 53%

    Amanhã, 26 Setembro, Quarta-feira

    Tempo Temperatura Precipitação Vento Pressão Humidade
    00:00 +7°C° 0 mm 2 m/s 746 mmHg 55%
    01:00 +6°C° 0 mm 2 m/s 746 mmHg 56%
    02:00 +7°C° 0 mm 1 m/s 747 mmHg 58%
    03:00 +6°C° 0 mm 1 m/s 747 mmHg 59%
    04:00 +6°C° 0 mm 1 m/s 747 mmHg 60%
    05:00 +6°C° 0 mm 1 m/s 747 mmHg 60%
    06:00 +7°C° 0 mm 1 m/s 747 mmHg 57%
    07:00 +8°C° 0 mm 1 m/s 747 mmHg 53%
    08:00 +9°C° 0 mm 1 m/s 748 mmHg 49%
    09:00 +11°C° 0 mm 1 m/s 748 mmHg 43%
    10:00 +13°C° 0 mm 2 m/s 748 mmHg 38%
    11:00 +15°C° 0 mm 2 m/s 747 mmHg 33%
    12:00 +15°C° 0 mm 2 m/s 747 mmHg 31%
    13:00 +16°C° 0 mm 3 m/s 747 mmHg 28%
    14:00 +16°C° 0 mm 3 m/s 746 mmHg 26%
    15:00 +16°C° 0 mm 3 m/s 746 mmHg 26%
    16:00 +16°C° 0 mm 3 m/s 746 mmHg 27%
    17:00 +15°C° 0 mm 2 m/s 745 mmHg 27%
    18:00 +13°C° 0 mm 2 m/s 746 mmHg 31%
    19:00 +10°C° 0 mm 2 m/s 746 mmHg 36%
    20:00 +9°C° 0 mm 1 m/s 747 mmHg 40%
    21:00 +9°C° 0 mm 1 m/s 747 mmHg 41%
    22:00 +9°C° 0 mm 1 m/s 747 mmHg 41%
    23:00 +8°C° 0 mm 1 m/s 747 mmHg 42%

    Depois de amanhã, 27 Setembro, Quinta-feira

    Tempo Temperatura Precipitação Vento Pressão Humidade
    00:00 +8°C° 0 mm 1 m/s 747 mmHg 43%
    01:00 +8°C° 0 mm 1 m/s 747 mmHg 44%
    02:00 +7°C° 0 mm 1 m/s 747 mmHg 45%
    03:00 +7°C° 0 mm 1 m/s 747 mmHg 46%
    04:00 +6°C° 0 mm 1 m/s 747 mmHg 48%
    05:00 +6°C° 0 mm 1 m/s 746 mmHg 49%
    06:00 +7°C° 0 mm 1 m/s 746 mmHg 46%
    07:00 +9°C° 0 mm 1 m/s 746 mmHg 44%
    08:00 +10°C° 0 mm 1 m/s 746 mmHg 41%
    09:00 +12°C° 0 mm 1 m/s 746 mmHg 36%
    10:00 +14°C° 0 mm 2 m/s 745 mmHg 32%
    11:00 +16°C° 0 mm 3 m/s 745 mmHg 28%
    12:00 +16°C° 0 mm 3 m/s 744 mmHg 26%
    13:00 +17°C° 0 mm 3 m/s 744 mmHg 24%
    14:00 +18°C° 0 mm 3 m/s 743 mmHg 23%
    15:00 +18°C° 0 mm 3 m/s 742 mmHg 24%
    16:00 +18°C° 0 mm 2 m/s 742 mmHg 24%
    17:00 +17°C° 0 mm 2 m/s 741 mmHg 25%
    18:00 +15°C° 0 mm 2 m/s 741 mmHg 29%
    19:00 +13°C° 0 mm 2 m/s 742 mmHg 33%
    20:00 +11°C° 0 mm 1 m/s 742 mmHg 37%
    21:00 +11°C° 0 mm 1 m/s 742 mmHg 37%
    22:00 +11°C° 0 mm 1 m/s 742 mmHg 37%
    23:00 +10°C° 0 mm 1 m/s 741 mmHg 38%

    28 Setembro, Sexta-feira

    Tempo Temperatura Precipitação Vento Pressão Humidade
    00:00 +10°C° 0 mm 1 m/s 741 mmHg 39%
    01:00 +10°C° 0 mm 1 m/s 741 mmHg 39%
    02:00 +10°C° 0 mm 1 m/s 741 mmHg 40%
    03:00 +10°C° 0 mm 1 m/s 741 mmHg 41%
    04:00 +9°C° 0 mm 1 m/s 740 mmHg 42%
    05:00 +9°C° 0 mm 1 m/s 740 mmHg 43%
    06:00 +10°C° 0 mm 1 m/s 740 mmHg 41%
    07:00 +12°C° 0 mm 1 m/s 740 mmHg 39%
    08:00 +13°C° 0 mm 1 m/s 740 mmHg 37%
    09:00 +15°C° 0 mm 1 m/s 740 mmHg 34%
    10:00 +17°C° 0 mm 2 m/s 739 mmHg 32%
    11:00 +19°C° 0 mm 2 m/s 739 mmHg 29%
    12:00 +20°C° 0 mm 2 m/s 738 mmHg 29%
    13:00 +20°C° 0 mm 2 m/s 738 mmHg 30%
    14:00 +21°C° 0 mm 3 m/s 737 mmHg 30%
    15:00 +21°C° 0 mm 2 m/s 737 mmHg 32%
    16:00 +20°C° 0 mm 2 m/s 736 mmHg 34%
    17:00 +20°C° 0 mm 2 m/s 736 mmHg 36%
    18:00 +18°C° 0 mm 2 m/s 736 mmHg 41%
    19:00 +16°C° 0 mm 2 m/s 736 mmHg 47%
    20:00 +14°C° 0 mm 1 m/s 736 mmHg 52%
    21:00 +14°C° 0 mm 1 m/s 736 mmHg 53%
    22:00 +13°C° 0 mm 1 m/s 736 mmHg 54%
    23:00 +13°C° 0 mm 1 m/s 736 mmHg 55%

    29 Setembro, Sábado

    Tempo Temperatura Precipitação Vento Pressão Humidade
    00:00 +13°C° 0 mm 1 m/s 736 mmHg 56%
    01:00 +12°C° 0 mm 1 m/s 736 mmHg 57%
    02:00 +12°C° 0 mm 1 m/s 736 mmHg 57%
    03:00 +12°C° 0 mm 1 m/s 736 mmHg 58%
    04:00 +12°C° 0 mm 1 m/s 735 mmHg 59%
    05:00 +11°C° 0 mm 1 m/s 735 mmHg 61%
    06:00 +13°C° 0 mm 1 m/s 735 mmHg 58%
    07:00 +14°C° 0 mm 1 m/s 735 mmHg 55%
    08:00 +15°C° 0 mm 1 m/s 735 mmHg 52%
    09:00 +18°C° 0 mm 1 m/s 735 mmHg 47%
    10:00 +21°C° 0 mm 1 m/s 735 mmHg 42%
    11:00 +23°C° 0 mm 1 m/s 735 mmHg 37%
    12:00 +24°C° 0 mm 1 m/s 735 mmHg 35%
    13:00 +25°C° 0 mm 1 m/s 734 mmHg 34%
    14:00 +25°C° 0 mm 2 m/s 734 mmHg 32%
    15:00 +25°C° 0 mm 2 m/s 734 mmHg 33%
    16:00 +25°C° 0 mm 2 m/s 734 mmHg 34%
    17:00 +24°C° 0 mm 2 m/s 734 mmHg 35%
    18:00 +21°C° 0 mm 2 m/s 734 mmHg 40%
    19:00 +19°C° 0 mm 2 m/s 735 mmHg 45%
    20:00 +17°C° 0 mm 2 m/s 735 mmHg 51%
    21:00 +17°C° 0 mm 2 m/s 735 mmHg 52%
    22:00 +16°C° 0 mm 2 m/s 735 mmHg 53%
    23:00 +16°C° 0 mm 2 m/s 735 mmHg 55%

    30 Setembro, Domingo

    Tempo Temperatura Precipitação Vento Pressão Humidade
    00:00 +15°C° 0 mm 2 m/s 736 mmHg 56%
    01:00 +15°C° 0 mm 2 m/s 736 mmHg 57%
    02:00 +15°C° 0 mm 2 m/s 736 mmHg 58%
    03:00 +14°C° 0 mm 2 m/s 736 mmHg 59%
    04:00 +14°C° 0 mm 2 m/s 736 mmHg 61%
    05:00 +13°C° 0 mm 2 m/s 736 mmHg 63%
    06:00 +14°C° 0 mm 2 m/s 737 mmHg 60%
    07:00 +15°C° 0 mm 2 m/s 737 mmHg 57%
    08:00 +16°C° 0 mm 2 m/s 737 mmHg 54%
    09:00 +18°C° 0 mm 2 m/s 737 mmHg 49%
    10:00 +20°C° 0 mm 2 m/s 737 mmHg 43%
    11:00 +23°C° 0 mm 2 m/s 738 mmHg 37%
    12:00 +24°C° 0 mm 2 m/s 737 mmHg 35%
    13:00 +25°C° 0 mm 2 m/s 737 mmHg 33%
    14:00 +25°C° 0 mm 2 m/s 736 mmHg 31%
    15:00 +25°C° 0 mm 2 m/s 736 mmHg 33%
    16:00 +24°C° 0 mm 2 m/s 736 mmHg 34%
    17:00 +24°C° 0 mm 2 m/s 736 mmHg 35%
    18:00 +22°C° 0 mm 1 m/s 736 mmHg 40%
    19:00 +20°C° 0 mm 1 m/s 736 mmHg 45%
    20:00 +18°C° 0 mm 1 m/s 736 mmHg 51%
    21:00 +16°C° 0 mm 1 m/s 736 mmHg 52%
    22:00 +16°C° 0 mm 1 m/s 736 mmHg 54%
    23:00 +15°C° 0 mm 1 m/s 736 mmHg 55%
    Mostrar mais